Location: Siloam Springs
(36.1881°N, 94.5403°W)
Time: 23:59:52
(UTC-06:00)

Tiangong - Visible Passes

Search period start: 03 March 2024 00:00
Search period end: 13 March 2024 01:00
Orbit: 375 x 384 km, 41.5° (Epoch: 03 March)

Date Brightness Start Highest point End Pass type
(mag) Time Alt. Az. Time Alt. Az. Time Alt. Az.
03 Mar -0.9 19:03:59 10° WNW 19:06:50 32° N 19:09:02 14° NE visible
03 Mar 1.5 20:41:06 10° WNW 20:41:08 10° WNW 20:41:08 10° WNW visible
04 Mar -0.9 19:39:34 10° WNW 19:42:20 29° N 19:42:39 28° NNE visible
05 Mar -0.7 18:37:52 10° WNW 18:40:40 29° N 18:43:25 10° ENE visible
05 Mar 0.2 20:14:46 10° WNW 20:16:11 23° NW 20:16:11 23° NW visible
06 Mar -1.0 19:13:10 10° WNW 19:16:02 33° N 19:17:35 20° ENE visible
07 Mar -2.0 19:48:08 10° WNW 19:51:02 60° N 19:51:02 60° N visible
08 Mar -1.4 18:46:26 10° WNW 18:49:24 41° NNE 18:52:21 10° E visible
08 Mar 0.4 20:23:08 10° WNW 20:24:29 22° W 20:24:29 22° W visible
09 Mar -2.2 19:21:14 10° WNW 19:24:20 83° SSW 19:25:50 28° ESE visible
10 Mar -0.4 20:56:22 10° W 20:58:58 24° SSW 20:59:18 24° SSW visible
11 Mar -1.4 19:54:08 10° WNW 19:57:08 47° SSW 20:00:08 10° SE visible
12 Mar 0.6 20:29:44 10° WSW 20:31:30 14° SW 20:33:15 10° S visible
